Lid_Strength_Index
17 16 16 18 17 17 22 24 23 21 23 19 20 20 18 15 13 12 10 9 9 9 8 8 8 7 6 6 6 6 6 7 6 6 5 5 6 6 7 7 7 6 6 8
19 16 18 18 17 18 18 22 23 24 21 17 16 16 17 14 14 13 11 10 9 8 9 8 7 7 7 7 7 7 7 7 6 6 6 5 4 5 6 7 7 7 7 9
20 18 19 22 18 18 18 18 22 23 21 18 17 16 19 18 14 13 12 11 9 9 10 9 8 7 8 8 7 7 7 7 6 6 6 5 4 4 6 7 7 8 8 9
20 19 27 18 15 16 19 17 19 19 22 20 19 16 16 14 14 13 12 10 11 11 10 10 9 8 8 8 8 8 8 8 7 7 7 5 5 6 6 6 7 7 9 10
25 22 19 17 17 18 19 19 17 18 18 16 16 16 17 13 13 13 13 12 12 11 11 10 9 9 9 9 9 9 9 9 8 7 7 7 5 7 6 7 8 8 9 11
21 23 26 18 17 16 17 23 16 16 17 18 18 23 20 14 14 14 13 12 12 11 11 11 10 10 10 10 10 10 9 9 8 8 8 8 6 6 8 8 8 8 9 11
21 25 21 15 16 15 21 19 16 16 16 17 19 18 16 14 15 14 13 13 12 12 12 12 11 11 11 11 11 10 9 9 8 8 8 7 7 8 9 10 9 9 9 11
21 24 25 15 17 18 16 16 15 15 16 16 15 15 15 15 15 15 15 14 13 13 13 12 12 12 12 12 11 10 9 9 9 9 8 6 8 9 10 11 11 11 10 10
19 19 15 15 15 14 14 15 15 15 15 15 15 16 15 16 16 16 16 15 14 14 14 13 13 12 13 12 11 10 10 10 9 9 8 7 9 10 11 12 12 13 12 12
16 15 14 15 14 14 14 14 14 14 14 14 15 16 16 16 16 16 17 17 16 15 15 15 14 12 12 12 11 11 11 11 10 10 9 8 9 10 11 12 13 12 13 14
16 14 13 13 12 13 13 13 13 13 14 14 15 16 16 16 16 17 17 16 16 16 16 15 14 14 13 12 12 12 12 11 11 10 10 9 9 10 10 11 11 13 14 14
17 13 14 14 13 13 13 13 13 14 14 14 14 15 15 16 16 16 17 16 17 17 17 16 15 14 13 12 12 12 12 12 12 11 11 11 9 9 8 8 9 9 9 11
13 12 12 12 13 13 13 13 13 13 13 14 14 15 15 16 16 16 16 16 17 16 16 15 15 15 14 13 13 12 13 12 12 12 12 11 11 10 11 9 7 8 9 9
11 11 14 14 14 13 13 12 11 13 13 13 14 14 14 15 15 16 16 16 16 16 15 15 15 15 14 13 13 13 13 12 13 13 13 12 13 12 11 11 12 12 10 10
11 11 12 12 14 14 13 13 14 14 14 14 14 15 14 15 16 16 16 16 16 16 15 15 15 15 14 14 14 14 13 14 14 14 13 13 13 13 13 12 13 13 12 12
11 11 11 13 14 14 14 14 15 15 15 14 15 15 14 14 14 15 15 15 16 17 16 15 15 15 15 14 15 15 15 14 14 14 14 13 13 13 13 13 13 13 13 13
13 14 14 13 14 14 14 14 14 14 14 14 14 14 14 14 14 15 15 15 15 15 16 15 15 15 15 15 15 15 15 14 14 14 14 14 14 13 13 13 13 13 13 12
10 11 12 12 13 13 14 14 14 14 14 13 13 14 14 14 15 15 15 15 15 16 16 15 15 15 15 15 15 15 15 14 14 14 13 13 14 13 13 13 13 13 13 12
10 10 11 11 11 12 12 13 13 13 13 13 13 14 14 14 14 13 14 15 15 16 15 15 15 15 15 15 15 16 16 15 14 14 13 13 13 13 13 13 12 12 12 12
10 10 10 10 11 12 12 12 12 13 13 14 14 15 15 14 13 13 14 15 14 14 13 14 15 15 16 15 15 15 16 15 14 13 13 13 13 13 12 13 12 12 12 12
11 10 10 11 11 11 12 11 13 13 13 14 14 14 14 13 14 14 15 15 13 13 14 14 15 15 16 16 15 15 16 15 14 14 13 13 13 12 12 12 11 12 13 12
11 11 11 11 11 11 11 12 13 12 13 14 14 13 14 14 14 13 13 13 12 13 14 14 14 14 15 15 16 15 15 15 14 13 13 13 12 12 12 12 12 12 13 14
11 11 11 11 12 11 11 11 12 12 12 13 13 13 13 12 13 14 14 12 12 13 13 13 13 14 14 15 15 14 14 14 14 13 13 13 13 13 12 12 12 12 13 14
11 11 11 11 11 12 12 11 11 11 12 11 12 12 12 13 13 12 11 11 12 12 13 13 13 13 14 14 14 14 14 13 14 13 12 13 13 13 12 12 12 12 13 14
10 10 10 11 12 12 12 11 12 12 13 12 12 12 12 11 11 11 12 12 13 13 13 12 12 13 14 13 13 13 14 13 13 13 13 12 12 13 12 13 13 13 14 14
10 11 11 11 11 12 12 13 13 11 12 12 12 12 12 12 11 11 12 13 12 13 12 12 12 12 13 12 12 13 13 13 13 13 13 12 12 12 13 13 14 14 14 15
10 11 10 11 11 11 11 12 13 11 12 11 11 10 12 12 13 12 12 12 12 12 12 11 11 11 12 12 12 12 13 13 13 13 13 12 12 12 13 13 14 14 15 16